This is the latest recevied weather packets stored in our database for station/object KR0L-13. If no packets are shown the sender has not sent any weather packets the latest 10 day(s).
| Time | Temp. | Humidity | Pressure | Rain* | Wind** | Luminosity | Snow |
|---|---|---|---|---|---|---|---|
| 1777328421 | 20° C | 60% | 1009.7 hPa | 0 mm | - | - | - |
| 1777327820 | 20.56° C | 60% | 1009.3 hPa | 0 mm | - | - | - |
| 1777327221 | 20° C | 61% | 1009.2 hPa | 0 mm | - | - | - |
| 1777326620 | 20.56° C | 61% | 1009.1 hPa | 0 mm | - | - | - |
| 1777326021 | 20.56° C | 61% | 1009 hPa | 0 mm | - | - | - |
| 1777325421 | 20.56° C | 63% | 1008.7 hPa | 0 mm | - | - | - |
| 1777324820 | 20° C | 64% | 1008.9 hPa | 0 mm | - | - | - |
| 1777324220 | 20° C | 61% | 1008.7 hPa | 0 mm | - | - | - |
| 1777323621 | 20.56° C | 65% | 1008.7 hPa | 0 mm | - | - | - |
| 1777323020 | 20.56° C | 64% | 1008.7 hPa | 0 mm | - | - | - |
| 1777322421 | 20° C | 66% | 1008.5 hPa | 0 mm | - | - | - |
| 1777321821 | 20° C | 67% | 1008.5 hPa | 0 mm | - | - | - |
| 1777321220 | 20° C | 67% | 1008.5 hPa | 0 mm | - | - | - |
| 1777320621 | 19.44° C | 67% | 1008.3 hPa | 0 mm | - | - | - |
| 1777320020 | 19.44° C | 69% | 1008.4 hPa | 0 mm | - | - | - |
| 1777319420 | 19.44° C | 71% | 1008.5 hPa | 0 mm | - | - | - |
| 1777318820 | 18.89° C | 71% | 1008.3 hPa | 0 mm | - | - | - |
| 1777318220 | 19.44° C | 70% | 1008.3 hPa | 0 mm | - | - | - |
| 1777317633 | 19.44° C | 71% | 1008 hPa | 0 mm | - | - | - |
| 1777317020 | 18.89° C | 73% | 1007.9 hPa | 0 mm | - | - | - |
| 1777316420 | 18.89° C | 73% | 1007.8 hPa | 0 mm | - | - | - |
| 1777315820 | 18.33° C | 76% | 1007.6 hPa | 0 mm | - | - | - |
| 1777315220 | 18.33° C | 76% | 1007.5 hPa | 0 mm | - | - | - |
| 1777314620 | 17.78° C | 77% | 1007.3 hPa | 0 mm | - | - | - |
| 1777314020 | 17.22° C | 78% | 1007 hPa | 0 mm | - | - | - |
* Rain latest hour (hover to see other rain measurements)
** Current wind speed in m/s (hover to see current wind gust speed)